CST,Max TemperatureF,Mean TemperatureF,Min TemperatureF,Max Dew PointF,MeanDew PointF,Min DewpointF,Max Humidity, Mean Humidity, Min Humidity, Max Sea Level PressureIn, Mean Sea Level PressureIn, Min Sea Level PressureIn, Max VisibilityMiles, Mean VisibilityMiles, Min VisibilityMiles, Max Wind SpeedMPH, Mean Wind SpeedMPH, Max Gust SpeedMPH,PrecipitationIn, CloudCover, Events, WindDirDegrees
2012-1-1,35,30,26,32,23,18,87,74,60,30.22,29.98,29.63,10,10,7,36,28,48,0.00,6,Rain-Snow,304
2012-1-2,24,20,15,14,11,9,80,68,50,30.46,30.36,30.27,10,10,5,31,22,39,0.00,4,Snow,318
2012-1-3,30,20,10,16,10,7,92,70,44,30.45,30.21,29.95,10,10,10,23,7,29,0.00,0,,173
2012-1-4,41,31,21,28,24,16,87,75,57,30.10,30.02,29.88,10,10,10,16,8,22,0.00,0,,276
2012-1-5,57,42,26,36,30,23,93,71,41,29.96,29.83,29.69,10,10,10,20,7,25,0.00,0,,233
2012-1-6,46,40,33,34,31,28,87,73,57,29.86,29.75,29.66,10,10,5,15,7,21,0.00,0,,297
2012-1-7,37,32,28,28,26,25,86,77,65,30.21,30.08,29.91,10,10,10,17,11,23,0.00,1,,310
2012-1-8,42,30,19,30,24,18,93,80,53,30.31,30.26,30.23,10,9,5,9,3,,0.00,0,,198
2012-1-9,48,37,26,32,28,23,86,72,46,30.17,30.03,29.93,10,10,10,22,11,26,0.00,0,,235
2012-1-10,53,40,26,34,29,23,93,72,44,29.99,29.90,29.78,10,10,10,14,5,16,0.00,0,,197
2012-1-11,44,32,17,36,27,12,87,81,70,29.76,29.66,29.60,10,9,2,29,11,37,0.00,3,Snow,280
2012-1-12,15,12,10,10,8,7,85,82,73,29.75,29.71,29.68,10,2,0,26,23,34,0.00,8,Snow,322
2012-1-13,15,12,8,10,8,5,86,81,73,29.99,29.91,29.79,10,7,2,20,13,23,0.00,8,Snow,305
2012-1-14,23,12,1,19,6,-2,92,83,73,30.08,30.02,29.96,10,10,4,8,4,,0.00,3,Snow,151
2012-1-15,37,26,15,27,22,12,93,81,65,30.13,29.96,29.77,10,7,0,24,10,30,0.00,1,Fog,146
2012-1-16,35,30,26,30,27,23,93,83,75,29.79,29.72,29.68,10,10,7,17,10,21,0.00,0,,10
2012-1-17,26,14,3,19,9,-2,86,77,67,30.27,30.07,29.76,10,8,1,28,17,34,0.00,4,Snow,316
2012-1-18,26,13,0,18,5,-4,85,78,63,30.26,30.02,29.75,10,10,10,26,9,30,0.00,0,,179
2012-1-19,5,0,-4,-4,-10,-15,72,61,47,30.15,30.07,29.90,10,10,10,25,15,29,0.00,1,,332
2012-1-20,6,3,0,1,-2,-9,85,77,61,30.15,30.09,30.03,10,5,0,14,6,,0.03,5,Snow,85
2012-1-21,17,4,-9,12,-2,-15,86,81,77,30.20,30.14,29.99,10,10,5,20,6,24,0.00,3,Snow,109
2012-1-22,33,25,17,30,23,12,93,88,79,29.82,29.61,29.46,10,3,1,25,17,31,0.02,7,Rain-Snow,137
2012-1-23,33,28,24,30,24,19,93,86,80,29.89,29.60,29.36,10,5,1,24,13,33,0.06,6,Rain-Snow,301
2012-1-24,26,22,17,21,19,14,93,84,80,30.30,30.16,29.95,10,10,7,14,9,,0.00,6,,281
2012-1-25,33,27,21,28,23,19,93,84,75,30.31,30.14,29.95,10,8,5,21,7,26,0.00,5,,135
2012-1-26,37,30,23,30,27,21,93,86,75,29.93,29.78,29.68,10,6,0,16,10,21,0.00,3,Fog-Snow,232
2012-1-27,35,26,17,30,23,14,93,83,75,29.91,29.85,29.81,10,9,1,26,10,33,0.00,3,Rain-Snow,236
2012-1-28,32,24,17,21,17,12,86,74,64,30.06,30.01,29.95,10,10,10,17,13,23,0.00,0,,265
2012-1-29,30,24,17,27,16,12,93,76,63,30.18,30.10,29.93,10,10,2,22,13,29,0.00,4,Snow,301
2012-1-30,44,34,24,36,28,18,81,76,61,29.97,29.76,29.70,10,10,10,18,12,16,0.00,1,,164
2012-1-31,44,40,35,37,34,30,87,79,70,29.91,29.73,29.65,10,10,10,15,10,,0.00,0,,238